[[{"header":{"parameterUnit":"m.s-1","parameterCategory":1,"la1":30.2991,"la2":30.254,"lo1":-89.0895,"lo2":-89.0444,"dx":0.0017,"dy":0.0017,"nx":28,"ny":28,"refTime":"2022-11-28T15:00:00:Z","depth":0,"parameterNumber":2,"parameterNumberName":"U-component_of_WINDS"},"data":[0,0,0,0,0,0,0,0,0,0,0,0,0,0,0,0,0,0,0,0,0,0,0,0,0,0,0,0,0,0,0,0,0,0,0,0,0,0,0,0,0,0,0,0,0,0,0,0,0,0,0,0,0,0,0,0,0,0,2.4427,2.4427,0,2.439,2.439,2.4389,2.4348,2.4348,2.4347,2.4347,2.431,2.431,2.4309,0,0,0,0,0,0,0,0,0,0,0,0,0,2.4467,2.4466,2.4427,2.4427,2.4426,2.439,2.439,2.4389,2.4349,2.4348,2.4347,2.4346,2.431,2.431,2.4309,0,0,0,0,0,0,0,0,0,0,0,0,0,2.4442,2.4466,2.4427,2.4402,2.4399,2.439,2.439,2.4389,2.4349,2.4348,2.4347,2.4346,2.4311,2.431,2.4309,2.4323,0,0,2.4307,2.4307,0,0,0,0,0,0,0,0,2.4443,2.444,2.4406,2.4404,2.4401,2.4373,2.439,2.4367,2.4349,2.4368,2.4347,2.4346,2.4332,2.433,2.4325,2.4322,2.432,2.4307,2.4307,2.4307,2.4307,0,0,0,0,0,0,0,2.4445,2.4442,2.4413,2.4406,2.4402,2.4393,2.4389,2.4386,2.4355,2.4366,2.4363,2.4359,2.433,2.4325,2.4323,2.4319,2.4307,2.4307,2.4306,2.4306,2.4329,2.433,0,0,0,0,0,0,2.445,2.4443,2.4414,2.4412,2.442,2.4393,2.4388,2.4383,2.4355,2.435,2.436,2.4357,2.4327,2.4324,2.4322,2.4338,2.4307,2.4306,2.4306,2.4328,2.4329,2.433,0,0,0,0,0,0,2.4451,2.4448,2.4415,2.4427,2.4422,2.4394,2.4388,2.4382,2.4377,2.4351,2.4345,2.436,2.4326,2.4323,2.4324,2.4336,2.4306,2.4305,2.4327,2.4328,2.4329,2.4369,0,0,0,0,0,0,2.4453,2.4449,2.4453,2.4427,2.4421,2.4417,2.4388,2.4382,2.4376,2.4372,2.4349,2.4345,2.4325,2.4325,2.4323,2.4335,2.4305,2.4325,2.4327,2.4329,2.4367,2.4372,2.4376,0,0,0,0,0,2.4454,2.4465,2.4453,2.445,2.4426,2.4417,2.4414,2.4391,2.4377,2.4382,2.4365,2.4345,2.4335,2.4325,2.4323,2.4334,2.4324,2.4327,2.4329,2.4364,2.4371,2.4376,0,0,0,0,0,0,2.4493,2.4461,2.4447,2.445,2.4437,2.4411,2.4415,2.4398,2.4389,2.4386,2.4358,2.4353,2.4358,2.4346,2.4336,2.4348,2.4327,2.4329,2.4355,2.4361,2.4365,2.4368,2.4304,0,0,0,0,0,2.4502,2.4497,2.447,2.4475,2.4469,2.4444,2.4439,2.4422,2.4408,2.4402,2.4385,2.4372,2.4366,2.4363,2.4356,2.4365,2.436,2.4372,2.4377,2.4381,2.4383,2.4389,2.4394,2.4337,2.4337,2.4337,0,0,2.452,2.4502,2.45,2.4482,2.447,2.4467,2.4439,2.4436,2.4434,2.4402,2.4402,2.4389,2.4373,2.4379,2.4381,2.4369,2.4398,2.4384,2.4387,2.4387,2.4392,2.4397,2.4402,2.4339,2.4338,2.4338,0,0,2.4551,2.4537,2.454,2.4529,2.4511,2.4494,2.4495,2.4472,2.4463,2.4462,2.4439,2.4436,2.4426,2.4416,2.441,2.4441,2.4423,2.4439,2.4464,2.4471,2.4475,2.4479,2.4492,2.4496,2.4441,2.4442,2.4442,0,2.4576,2.4569,2.4544,2.4544,2.4537,2.4508,2.4513,2.4503,2.4484,2.4481,2.4469,2.4457,2.4444,2.4448,2.4456,2.4451,2.4453,2.4442,2.4477,2.448,2.4484,2.4495,2.45,2.4444,2.4443,2.4443,2.4443,0,2.4602,2.4598,2.4603,2.4586,2.458,2.4582,2.4559,2.4556,2.4541,2.4526,2.4528,2.4511,2.4501,2.4501,2.4486,2.4504,2.4498,2.4482,2.446,2.4492,2.4502,2.4506,2.4447,2.4446,2.4445,2.4445,0,0,2.4654,2.4625,2.4627,2.462,2.4599,2.4597,2.4599,2.4589,2.4588,2.4576,2.4578,2.4571,2.4557,2.455,2.4534,2.4539,2.4567,2.4523,2.4522,2.4533,2.4588,2.4601,2.4606,2.4555,2.4556,2.4557,2.459,0,2.4683,2.4683,2.4662,2.4669,2.4667,2.464,2.4642,2.4631,2.4618,2.4615,2.46,2.4597,2.4577,2.4573,2.4577,2.4563,2.4578,2.456,2.4558,2.4558,2.4563,2.4611,2.4624,2.4656,2.4594,2.4594,2.4595,0,2.4715,2.4706,2.4713,2.4695,2.4693,2.4695,2.4685,2.4682,2.467,2.466,2.4654,2.4635,2.4637,2.4618,2.4621,2.4609,2.4608,2.4601,2.4601,2.4601,2.4579,2.4613,2.4666,2.4671,2.4601,2.46,2.46,0,2.4755,2.4745,2.4748,2.4742,2.472,2.4723,2.4714,2.47,2.4697,2.4689,2.4687,2.4679,2.4676,2.4671,2.4652,2.4639,2.4659,2.4637,2.4652,2.4653,2.4657,2.4657,2.4711,2.4655,2.4655,2.4655,2.4655,0,2.4789,2.4794,2.4766,2.4768,2.4774,2.4751,2.4758,2.4746,2.4735,2.4736,2.4713,2.4714,2.4689,2.4688,2.4673,2.4679,2.4678,2.4671,2.4667,2.4673,2.4674,2.4672,2.4669,2.4656,2.4656,2.4656,2.4656,0,2.4833,2.4814,2.4816,2.4796,2.4791,2.4797,2.478,2.4782,2.4769,2.477,2.4769,2.4748,2.4746,2.4727,2.472,2.471,2.4723,2.4714,2.4727,2.4725,2.4742,2.4741,2.4796,2.4803,2.4742,2.4743,2.4743,0,2.4856,2.486,2.4841,2.484,2.4832,2.483,2.4827,2.4805,2.4803,2.479,2.4794,2.479,2.4786,2.4784,2.4769,2.4764,2.4756,2.4776,2.4755,2.4762,2.4758,2.4758,2.4759,2.4781,2.4781,2.4782,2.4782,0,2.49,2.4891,2.4886,2.488,2.4877,2.487,2.4862,2.4863,2.4839,2.4838,2.4836,2.4833,2.4827,2.4824,2.4817,2.4809,2.4793,2.4789,2.4793,2.4799,2.4807,2.4805,2.474,2.4788,2.4787,2.4787,2.4787,2.4787,2.4935,2.4938,2.4925,2.4922,2.4915,2.4909,2.491,2.4898,2.4895,2.4889,2.4876,2.4877,2.4866,2.4856,2.485,2.485,2.484,2.4845,2.4846,2.4848,2.4852,2.4807,2.4849,2.4849,2.4849,2.4848,2.4848,0,2.4978,2.4969,2.4967,2.4957,2.4956,2.494,2.4932,2.4931,2.4932,2.4924,2.492,2.4919,2.4917,2.4903,2.4899,2.4903,2.4895,2.4903,2.4902,2.4901,2.4861,2.4858,2.4909,2.4909,2.4909,2.4909,2.4909,2.4909,2.5,2.5005,2.4995,2.4997,2.4989,2.4989,2.4986,2.4981,2.4974,2.4974,2.4972,2.4963,2.4953,2.4949,2.4947,2.4943,2.4943,2.4954,2.4947,2.491,2.4904,2.4898,2.4896,2.4954,2.4954,2.4988,2.4988,2.4989]},{"header":{"parameterUnit":"m.s-1","parameterCategory":1,"la1":30.2991,"la2":30.254,"lo1":-89.0895,"lo2":-89.0444,"dx":0.0017,"dy":0.0017,"nx":28,"ny":28,"refTime":"2022-11-28T15:00:00:Z","depth":0,"parameterNumber":3,"parameterNumberName":"V-component_of_WINDS"},"data":[0,0,0,0,0,0,0,0,0,0,0,0,0,0,0,0,0,0,0,0,0,0,0,0,0,0,0,0,0,0,0,0,0,0,0,0,0,0,0,0,0,0,0,0,0,0,0,0,0,0,0,0,0,0,0,0,0,0,2.2569,2.2569,0,2.2569,2.2569,2.2569,2.2548,2.2548,2.2547,2.2547,2.2547,2.2548,2.2548,0,0,0,0,0,0,0,0,0,0,0,0,0,2.255,2.255,2.2569,2.2569,2.2569,2.2569,2.2569,2.2569,2.2548,2.2548,2.2547,2.2546,2.2547,2.2548,2.2549,0,0,0,0,0,0,0,0,0,0,0,0,0,2.2555,2.255,2.2569,2.2558,2.2557,2.2569,2.2569,2.2569,2.2548,2.2548,2.2547,2.2546,2.2547,2.2548,2.2549,2.257,0,0,2.2551,2.2551,0,0,0,0,0,0,0,0,2.2555,2.2556,2.256,2.2559,2.2558,2.2558,2.2563,2.257,2.2549,2.2552,2.2547,2.2546,2.2552,2.2552,2.2554,2.257,2.257,2.2551,2.2552,2.2552,2.2552,0,0,0,0,0,0,0,2.2554,2.2555,2.2569,2.256,2.2559,2.2554,2.2553,2.2564,2.2556,2.2552,2.255,2.255,2.2551,2.2553,2.2554,2.257,2.2551,2.2552,2.2552,2.2553,2.2605,2.2606,0,0,0,0,0,0,2.2555,2.2555,2.2569,2.2569,2.2554,2.2555,2.2554,2.2559,2.2556,2.2555,2.2551,2.2549,2.2552,2.2553,2.2554,2.2579,2.2552,2.2553,2.2553,2.2604,2.2605,2.2606,0,0,0,0,0,0,2.2555,2.2557,2.2569,2.2562,2.2563,2.2556,2.2561,2.2559,2.2561,2.2556,2.2554,2.2555,2.2552,2.2553,2.2566,2.2579,2.2553,2.2554,2.2603,2.2604,2.2606,2.263,0,0,0,0,0,0,2.2554,2.2557,2.2565,2.2562,2.2563,2.2581,2.2562,2.256,2.2563,2.2561,2.2559,2.2558,2.2551,2.2565,2.2567,2.258,2.2554,2.2602,2.2604,2.2605,2.2628,2.2632,2.2636,0,0,0,0,0,2.2554,2.2572,2.2565,2.2567,2.2573,2.2582,2.2583,2.2575,2.2564,2.2572,2.2569,2.2558,2.2577,2.2567,2.2569,2.2582,2.2601,2.2603,2.2605,2.2627,2.2631,2.2636,0,0,0,0,0,0,2.2576,2.2571,2.2564,2.2581,2.2582,2.2579,2.2589,2.258,2.2584,2.2582,2.2571,2.2571,2.2587,2.2585,2.2574,2.2603,2.2587,2.259,2.2603,2.2607,2.2611,2.2611,2.2555,0,0,0,0,0,2.2583,2.2591,2.2586,2.2602,2.2603,2.2596,2.2599,2.2593,2.2593,2.2594,2.2591,2.2592,2.2598,2.2603,2.2608,2.2628,2.2627,2.2638,2.2641,2.2644,2.2647,2.2657,2.2662,2.2613,2.2613,2.2613,0,0,2.2598,2.2596,2.2601,2.2606,2.2606,2.2614,2.2596,2.2606,2.2612,2.2595,2.2608,2.2606,2.2607,2.2624,2.2631,2.2623,2.266,2.2647,2.2649,2.265,2.266,2.2664,2.2669,2.2614,2.2614,2.2614,0,0,2.2628,2.2627,2.2641,2.2641,2.2641,2.2636,2.264,2.2637,2.2636,2.2648,2.2636,2.2643,2.2654,2.2655,2.2657,2.2688,2.2679,2.269,2.271,2.272,2.2724,2.2727,2.2738,2.2743,2.2693,2.2693,2.2693,0,2.2646,2.2658,2.2648,2.2659,2.2661,2.2647,2.266,2.2661,2.2663,2.2665,2.2657,2.267,2.2669,2.2686,2.2694,2.2696,2.2699,2.269,2.2724,2.2727,2.273,2.2741,2.2745,2.2694,2.2694,2.2694,2.2694,0,2.268,2.2688,2.2699,2.2701,2.2705,2.2717,2.271,2.2715,2.2708,2.2704,2.2717,2.2716,2.2721,2.2725,2.2718,2.2741,2.2736,2.2726,2.271,2.2737,2.2746,2.275,2.2696,2.2696,2.2695,2.2695,0,0,2.2724,2.2722,2.2726,2.2727,2.2726,2.2732,2.2744,2.2749,2.2753,2.2755,2.2764,2.2774,2.2765,2.2767,2.276,2.2769,2.2794,2.2758,2.2758,2.2765,2.282,2.2827,2.2832,2.2788,2.2789,2.2789,2.282,0,2.2754,2.2773,2.2765,2.2785,2.2793,2.2779,2.2789,2.279,2.2787,2.2793,2.2789,2.2796,2.2783,2.2785,2.2793,2.279,2.2805,2.2787,2.2797,2.2797,2.2797,2.2837,2.2846,2.2874,2.2823,2.2824,2.2824,0,2.2791,2.2795,2.2816,2.2814,2.2817,2.2826,2.283,2.2836,2.2836,2.2833,2.2836,2.2827,2.2838,2.2823,2.2838,2.2826,2.2829,2.2828,2.2829,2.283,2.2813,2.2839,2.2883,2.2888,2.283,2.283,2.2829,0,2.2822,2.2832,2.2846,2.2847,2.2845,2.2852,2.2851,2.2851,2.2855,2.2858,2.286,2.2865,2.2868,2.2872,2.2865,2.2854,2.2881,2.2864,2.2879,2.2879,2.2885,2.2885,2.293,2.2887,2.2887,2.2887,2.2887,0,2.2856,2.2869,2.286,2.2868,2.2882,2.2873,2.2888,2.2886,2.2886,2.2894,2.2882,2.289,2.288,2.2887,2.2881,2.2895,2.2896,2.2894,2.2892,2.2895,2.2895,2.2897,2.2895,2.2888,2.2888,2.2888,2.2887,0,2.2893,2.2887,2.2901,2.2898,2.2898,2.2908,2.2906,2.2914,2.291,2.292,2.2922,2.2916,2.2923,2.2916,2.2923,2.292,2.2938,2.2933,2.2938,2.2936,2.2951,2.295,2.3,2.3006,2.2958,2.2959,2.2959,0,2.2915,2.2925,2.2923,2.2928,2.2928,2.2935,2.2939,2.293,2.2935,2.2936,2.2944,2.295,2.2955,2.2967,2.2963,2.2969,2.2964,2.2982,2.2965,2.2968,2.2965,2.2965,2.2966,2.2985,2.2985,2.2986,2.2986,0,2.2955,2.2952,2.2958,2.2962,2.2967,2.297,2.2973,2.2977,2.2968,2.2973,2.2981,2.2985,2.2992,2.2998,2.3003,2.3002,2.2993,2.2991,2.2995,2.2998,2.3,2.3,2.2947,2.299,2.299,2.299,2.2989,2.2989,2.2986,2.2994,2.2994,2.3001,2.3002,2.3004,2.3011,2.3009,2.3015,2.302,2.3014,2.3024,2.3024,2.3029,2.3029,2.3036,2.3029,2.3034,2.3036,2.3037,2.304,2.2999,2.3037,2.3037,2.3037,2.3037,2.3037,0,2.3025,2.3025,2.3031,2.3035,2.304,2.3031,2.3033,2.3039,2.3047,2.3048,2.3053,2.3062,2.3068,2.3065,2.307,2.3077,2.3073,2.3078,2.3078,2.3078,2.3045,2.3042,2.3082,2.3082,2.3082,2.3082,2.3082,2.3082,2.3047,2.306,2.3057,2.3071,2.307,2.3079,2.3081,2.3084,2.3085,2.3095,2.31,2.3098,2.3098,2.3103,2.3108,2.3107,2.311,2.3117,2.3115,2.3085,2.308,2.3076,2.3073,2.3118,2.3118,2.3147,2.3147,2.3147]}]]